Regional Weather Roundup
Issued by NWS Charleston, SC

Current Version | Previous Version | Graphics & Text | Print | Product List | Glossary On
Versions: 1 2 3 4 5 6 7 8 9 10 11 12 13 14 15 16 17 18 19 20 21 22 23 24 25 26 27 28 29 30 31 32 33 34 35 36 37 38 39 40 41 42 43 44 45 46 47 48 49 50
000
ASUS42 KCHS 300713
RWRCHS

REGIONAL WEATHER ROUNDUP
NATIONAL WEATHER SERVICE CHARLESTON SC
300 AM EDT TUE AUG 30 2016

NOTE: "FAIR" INDICATES FEW OR NO CLOUDS BELOW 12,000 FEET WITH NO
SIGNIFICANT WEATHER AND/OR OBSTRUCTIONS TO VISIBILITY.

NOT ALL STATIONS ARE QUALITY CONTROLLED. USE DATA WITH CAUTION...
ESPECIALLY DEWPOINT OBSERVATIONS.

SCZ027-030-031-034>040-042>050-300800-
...SOUTHEAST SOUTH CAROLINA...

CITY           SKY/WX    TMP DP  RH WIND       PRES   REMARKS
N CHARLESTON   PTCLDY    76  73  91 N5        30.03S
WATERFRONT PRK   N/A     79  76  91 NE6       30.01S
MOUNT PLEASANT FAIR      75  73  94 CALM      30.03F
JOHNS ISLAND   FAIR      77  75  94 N6        30.03F
PINOPOLIS        N/A     79  75  89 E6        29.97F
MONCKS CORNER  FAIR      70  70 100 CALM      30.04S
SUMMERVILLE    FAIR      72  72 100 CALM      30.05S
BEAUFORT MCAS  CLOUDY    77  74  90 N3        30.03S THUNDER
BEAUFORT ARPT  TSTM      73  72  94 E6        30.02F
HILTON HEAD IS PTCLDY    81  77  89 N7        30.02F THUNDER
WALTERBORO     MOSUNNY   73  73 100 CALM      30.05F
ALLENDALE      FAIR      72  72 100 CALM      30.04F

...SOUTHERN MIDLANDS AND PEE DEE...

CITY           SKY/WX    TMP DP  RH WIND       PRES   REMARKS
GEORGETOWN     PTSUNNY   72  72 100 CALM      30.05S
KINGSTREE      FAIR      70  68  94 CALM      30.05F
ORANGEBURG     CLEAR     74  72  93 CALM      30.06S
BARNWELL       NOT AVBL
AIKEN          FAIR      70  70 100 NE3       30.10F
MANNING        FAIR      72  70  94 CALM      30.05S
COLUMBIA       CLEAR     75  71  87 CALM      30.06F
SUMTER         CLEAR     72  70  92 N5        30.04F
FLORENCE       LGT RAIN  75  70  84 NE3       30.06F
MYRTLE BEACH   PTCLDY    75  64  69 N8        30.06S
N MYRTLE BEACH CLEAR     74  72  93 N8        30.03F

$$

GAZ063-065-086>088-099>101-113>116-118-119-134>141-150-300800-
...SOUTHEAST GEORGIA...

CITY           SKY/WX    TMP DP  RH WIND       PRES   REMARKS
SAVANNAH ARPT  MOCLDY    75  73  93 N3        30.02F
HUNTER AAF     MOCLDY    76  76 100 NE2       29.99F
FORT STEWART   PTCLDY    74  71  93 CALM      29.99F
STATESBORO     CLEAR     73  73  99 CALM      30.04S
SYLVANIA       NOT AVBL
CLAXTON        FAIR      72  72 100 CALM      30.03F

...CSRA...CENTRAL AND FAR SOUTHEAST GEORGIA...

CITY           SKY/WX    TMP DP  RH WIND       PRES   REMARKS
THOMSON        NOT AVBL
AUGUSTA-BUSH   PTCLDY    70  69  97 CALM      30.06S
AUGUSTA-DANIEL MOCLDY    75  71  87 N3        30.08S
SWAINSBORO     FAIR      73  70  88 CALM      30.06S
VIDALIA        CLEAR     73  73 100 CALM      30.04S
EASTMAN        FAIR      74  74 100 CALM      30.06S
HAZLEHURST     FAIR      75  75 100 CALM      30.02S
ALMA           CLEAR     74  73  97 CALM      30.01F
WAYCROSS         N/A     76  76 100 CALM      30.00F
JESUP          CLOUDY    75  75 100 NE3       30.01F
BAXLEY         FAIR      75  75 100 NE5       30.01F
BRUNSWICK      CLEAR     75  75 100 CALM      29.99F
SAINT SIMONS   CLEAR     81  71  71 SE9       29.98F

$$

SCZ027-028-034-036>038-045-046-048>050-GAZ119-141-300800-
...LAKE AND SUPPLEMENTAL COASTAL OBSERVATIONS...

STATION/POSITION TIME  TEMP    WIND        PRES    WAVE   SWELL
                       AIR SEA DIR/SP/G            HT/PER HT/PER/DIR
                 (UTC) (F)     (DEG/KT/KT) (MB)    (FT/S) (FT/S/D)
WINYAH BAY       NOT AVBL
LAKE MURRAY      0600   78      CALM  /  2 1017.9S
ACE BASIN NERRS  NOT AVBL
FORT PULASKI     0600   82 85  110/  6/  8 1017.1F
SAPELO ISLAND    0600   77     120/  3     1016.0F

$$

ANZ835-935-AMZ111-154-330-350-352-354-370-450-454-472-300800-
...C-MAN AND BUOY OBSERVATIONS...

STATION/POSITION TIME  TEMP    WIND        PRES    WAVE   SWELL
                       AIR SEA DIR/SP/G            HT/PER HT/PER/DIR
                 (UTC) (F)     (DEG/KT/KT) (MB)    (FT/S) (FT/S/D)
BUOY 41004       0650   83 85   40/  8/ 10 1015.8F   4/13   3/100/13
BUOY 41008       0650   83 85  100/ 10/ 12 1015.2F   3/12   3/110/12
FOLLY BEACH CMAN 0600   82      60/ 10/ 11 1017.1F
CAPERS NEARSHORE 0608   82 84   40/ 10/ 14 1016.8F
FRIPP NEARSHORE  0608   83 85  110/  8/ 12 1016.1F


STATION/POSITION TIME  TEMP    WIND        PRES    WAVE   SWELL
                       AIR SEA DIR/SP/G            HT/PER HT/PER/DIR
                 (UTC) (F)     (DEG/KT/KT) (MB)    (FT/S) (FT/S/D)
5E ST. MARYS GA  0701      85                N/A     4/13   2/100/13
FRYING PAN BUOY  0600   83 85   30/ 16/ 19 1016.0F
BUOY 41025       0650   83 84   40/ 16/ 17 1014.8F   7/12   5/100/12
CAPE LOOKOUT NC  0600   79      10/ 11/ 13 1015.9F
BUOY 41002       0650   83 84  230/ 14/ 16 1015.0F   4/13   3/ 60/13
BUOY 41010       NOT AVBL
ST AUGUSTINE FL  0700   80 83  120/ 19/ 20 1015.0F


$$




USA.gov is the U.S. government's official web portal to all federal, state and local government web resources and services.